Location: Cucq
(50.4773°N, 1.6202°E)
Time: 10:43:16
(UTC+00:00)

Cosmos 2279 Rocket - Pass Details

Date: 07 August 2020
Orbit: 965 x 978 km, 82.9° (Epoch: 20 September)

Event Time Altitude Azimuth Distance (km) Brightness Sun altitude
Exits shadow 01:44:42 25° 170° (S) 1,842 5.0 -19.3°
Maximum altitude 01:48:25 66° 95° (E) 1,049 4.2 -19.0°
Drops below altitude 10° 01:54:34 10° 14° (NNE) 2,720 7.5 -18.6°
Sets 01:57:06 0° 12° (NNE) 3,672 8.4 -18.4°
